SCP
0 0 0 0 0 0 0 0 0 0 0 0 0 0 0 0 0 0 0 0 0 0 0 0 0 0 0 0 0 0 0 0 1 1 0 0 0 1 0 0 0 0 1 1
0 0 0 0 0 0 0 0 0 0 0 0 0 0 0 0 0 0 0 0 0 0 0 0 0 0 0 0 0 0 0 1 1 1 0 0 1 1 0 0 0 0 0 0
0 0 0 0 0 0 0 0 0 0 0 0 0 0 0 0 0 0 0 0 0 0 0 0 0 0 0 0 0 0 0 0 0 0 1 1 1 1 0 0 0 0 0 0
0 0 0 0 0 0 0 0 0 0 0 0 0 0 0 0 0 0 0 0 0 0 0 0 0 0 0 0 0 0 0 0 0 0 1 1 1 1 0 0 0 0 0 0
0 0 0 0 0 0 0 0 0 0 0 0 0 0 0 0 0 0 0 0 0 0 0 0 0 0 0 0 0 0 0 0 0 0 1 1 1 1 0 0 0 0 0 0
0 0 0 0 0 0 0 0 0 0 0 0 0 0 0 0 0 0 0 0 0 0 0 0 0 0 0 0 0 0 0 0 0 1 1 1 1 0 0 0 0 0 0 0
0 0 0 0 0 0 0 0 0 0 0 0 0 0 0 0 0 0 0 0 0 0 0 0 0 0 0 0 0 0 0 0 0 1 1 1 0 0 0 0 0 0 0 0
0 0 0 0 0 0 0 0 0 0 0 0 0 0 0 0 0 0 0 0 0 0 0 0 0 0 0 0 0 0 0 0 0 1 1 1 0 0 0 0 0 0 0 0
0 0 0 0 0 0 0 0 0 0 0 0 0 0 0 0 0 0 0 0 0 0 0 0 0 0 0 0 0 0 0 0 1 1 1 0 0 0 0 0 0 0 0 0
0 0 0 0 0 0 0 0 0 0 0 0 0 0 0 0 0 0 0 0 0 0 0 0 0 0 0 0 0 0 0 0 1 1 1 0 0 0 0 0 0 0 0 0
0 0 0 0 0 0 0 0 0 0 0 0 0 0 0 0 0 0 0 0 0 0 0 0 0 0 0 0 0 0 0 0 0 1 0 0 0 0 0 0 0 0 0 0
0 0 0 0 0 0 0 0 0 0 0 0 0 0 0 0 0 0 0 0 0 0 0 0 0 0 0 0 0 0 0 0 0 0 0 0 0 0 0 0 0 0 0 0
0 0 0 0 0 0 0 0 0 0 0 0 0 0 0 0 0 0 0 0 0 0 0 0 0 0 0 0 0 0 0 0 0 0 0 0 0 0 0 0 0 0 0 0
0 0 0 0 0 0 0 0 0 0 0 0 0 0 0 0 0 0 0 0 0 0 0 0 0 0 0 0 0 0 0 0 0 0 0 0 0 0 0 0 0 0 0 0
0 0 0 0 0 0 0 0 0 0 0 0 0 0 0 0 0 0 0 0 0 0 0 0 0 0 0 0 0 0 0 0 0 0 0 0 0 0 0 0 0 0 0 0
0 0 0 0 0 0 0 0 0 0 0 0 0 0 0 0 0 0 0 0 0 0 0 0 0 0 0 0 0 0 0 0 0 0 0 0 0 0 0 0 0 0 0 0
0 0 0 0 0 0 0 0 0 0 0 0 0 0 0 0 0 0 0 0 0 0 0 0 0 0 0 0 0 0 0 0 0 0 0 0 0 0 0 0 0 0 0 0
0 0 -0 0 0 0 0 0 0 0 0 0 0 0 0 0 0 0 0 0 0 0 0 0 0 0 0 0 0 0 0 0 0 0 0 0 0 0 0 0 0 0 0 0
0 0 0 0 0 0 0 0 0 0 0 0 0 0 0 0 0 0 0 0 0 0 0 0 0 0 0 0 0 0 0 0 0 0 0 0 0 0 0 0 0 0 0 0
0 0 0 0 0 0 0 0 0 0 0 0 0 0 0 0 0 0 0 0 0 0 0 0 0 0 0 0 0 0 0 0 0 0 0 0 0 0 0 0 0 0 0 0
0 0 0 0 0 0 0 0 0 0 0 0 0 0 0 0 0 0 0 0 0 0 0 0 0 0 0 0 0 0 0 0 0 0 0 0 0 0 0 0 0 0 0 0
0 0 0 0 0 0 0 0 0 0 0 0 0 0 0 0 0 0 0 0 0 0 0 0 0 0 0 0 0 0 0 0 0 0 0 0 0 0 0 0 0 0 0 0
0 0 0 0 0 0 0 0 0 0 0 0 0 0 0 0 0 0 0 0 0 0 0 0 0 0 0 0 0 0 0 0 0 0 0 0 0 0 0 0 0 0 0 0
0 0 0 0 0 0 0 0 0 0 0 0 0 0 0 0 0 0 0 0 0 0 0 0 0 0 0 0 0 0 0 0 0 0 0 0 0 0 0 0 0 0 0 0
0 0 0 0 0 0 0 0 0 0 0 0 0 0 0 0 0 0 0 0 0 0 0 0 0 0 0 0 0 0 0 0 0 0 0 0 0 0 0 0 0 0 0 0
0 0 0 0 0 0 0 0 0 0 0 0 0 0 0 0 0 0 0 0 0 0 0 0 0 0 0 0 0 0 0 0 0 0 0 0 0 0 0 0 0 0 0 0
0 0 0 0 0 0 0 0 0 0 0 0 0 0 0 0 0 0 0 0 0 0 0 0 0 0 0 0 0 0 0 0 0 0 0 0 0 0 0 0 0 0 0 0
Wind_Speed
6 6 4 6 6 5 6 7 8 8 9 12 8 8 8 7 7 6 6 6 6 6 6 6 6 6 6 5 5 4 3 3 3 3 2 2 3 3 3 3 4 4 4 3
5 4 5 7 7 8 8 7 8 9 12 8 6 5 6 6 6 6 7 7 7 6 6 6 6 7 7 6 5 4 3 3 3 2 2 2 2 3 3 3 3 3 3 4
4 5 5 8 7 8 6 6 6 9 9 6 6 7 7 7 6 6 7 7 7 7 6 7 7 7 6 7 6 5 4 3 3 2 2 1 1 1 2 2 2 2 3 3
2 4 6 7 2 4 5 6 7 7 7 6 7 8 6 5 5 6 7 7 7 7 7 6 6 6 6 5 5 5 4 4 3 2 1 1 1 1 1 1 1 1 2 2
1 3 9 7 2 2 3 6 5 6 8 7 7 5 4 3 4 5 6 6 6 7 6 6 6 6 6 5 5 4 4 4 4 3 2 1 1 1 1 1 1 1 1 1
2 3 7 6 1 1 1 6 2 3 6 5 4 4 5 5 6 6 6 6 6 6 6 6 6 5 5 5 4 5 5 5 4 3 2 2 1 1 1 1 2 1 1 1
5 5 10 5 1 1 2 5 3 2 4 3 3 5 7 7 6 6 6 6 6 5 5 5 6 5 4 4 5 5 6 5 4 2 2 2 1 1 1 1 1 1 1 1
4 5 10 2 3 5 6 3 2 3 4 5 7 7 7 7 7 7 7 7 7 6 6 5 5 5 5 5 6 6 5 5 4 2 1 1 1 1 1 1 1 1 1 1
9 9 4 4 6 4 2 3 4 4 5 5 6 7 7 6 6 6 6 7 6 6 6 6 5 4 5 6 6 6 5 5 4 3 2 1 1 1 1 1 1 1 1 1
6 9 6 6 6 5 4 6 6 5 5 4 6 7 6 6 6 6 6 6 5 5 6 7 6 5 5 6 6 5 5 4 4 3 2 2 1 1 1 1 1 1 2 2
7 8 6 6 6 7 6 5 6 5 5 5 5 5 5 5 5 5 6 5 5 5 5 7 6 6 6 6 5 5 4 4 4 3 2 2 1 0 1 1 2 2 2 2
8 7 5 6 4 4 4 6 6 5 5 4 4 5 5 5 5 4 5 5 5 5 6 6 6 6 6 6 5 4 4 4 3 2 2 1 1 2 3 1 2 2 2 2
7 4 5 6 4 3 4 5 5 4 5 5 4 4 4 4 4 4 5 5 5 6 6 6 6 6 6 5 4 3 3 3 3 2 2 1 1 1 1 3 4 3 2 2
5 3 5 5 5 4 4 4 3 3 4 4 4 3 4 4 4 4 5 5 5 5 5 5 5 6 6 5 4 4 3 4 3 2 2 1 1 1 1 1 2 2 3 3
5 5 6 5 4 3 3 2 2 3 3 4 3 3 3 4 5 5 5 5 5 5 5 5 5 6 5 4 4 3 3 3 2 2 2 1 1 1 1 1 1 2 2 3
4 4 4 4 5 4 3 3 4 5 4 4 3 4 4 4 5 5 4 3 3 5 5 5 5 5 5 4 3 3 2 4 3 2 2 2 1 1 1 1 1 1 2 2
2 4 4 5 5 5 4 4 5 5 4 4 4 4 3 3 4 4 4 4 4 4 4 4 5 5 4 3 2 2 2 3 4 3 2 2 1 1 1 1 1 1 1 2
5 5 5 5 5 5 5 4 4 5 5 5 4 3 3 3 4 5 5 4 4 4 4 4 4 4 3 3 2 2 2 2 2 2 2 2 1 1 1 1 1 1 2 2
4 4 4 4 4 4 4 4 4 4 4 3 3 3 4 4 4 4 3 3 3 5 5 4 6 4 4 3 3 1 1 2 2 2 2 2 2 1 1 1 1 1 1 2
3 3 3 4 3 3 4 4 3 3 3 3 3 3 3 4 3 3 3 3 3 4 4 4 3 3 3 3 2 1 1 1 1 1 1 1 1 1 1 1 1 1 1 1
4 3 3 3 4 4 4 3 3 3 3 2 3 3 4 4 3 2 2 3 4 4 4 5 3 2 2 2 2 1 1 1 1 1 1 1 1 1 1 1 1 1 1 1
4 3 4 4 3 4 3 3 3 3 3 3 3 3 3 3 3 3 3 3 4 5 3 2 2 3 3 3 1 1 1 1 1 1 1 1 1 1 1 1 1 1 1 1
4 4 4 3 3 4 3 3 3 2 3 3 3 3 3 3 2 2 4 3 3 4 3 2 4 5 4 2 1 1 1 1 1 1 1 1 1 1 1 2 1 1 1 1
3 3 3 3 2 2 3 4 3 2 3 3 3 3 3 2 2 2 3 4 5 4 2 4 5 5 4 1 1 1 1 2 2 1 1 1 1 1 1 2 2 2 1 2
3 3 2 2 2 2 3 3 3 2 3 2 3 3 2 2 2 2 2 2 4 4 2 4 5 5 2 1 1 2 2 2 2 1 1 1 2 2 2 2 2 2 2 2
2 2 2 2 2 2 2 2 2 2 2 2 2 2 2 2 2 2 1 2 2 3 2 2 2 3 2 2 2 2 2 2 3 2 2 2 2 2 2 2 3 2 2 2
2 2 2 2 2 2 1 1 2 2 2 2 3 2 2 2 1 1 1 2 2 2 2 2 2 1 1 2 2 2 2 2 2 2 2 2 2 2 2 3 2 2 2 2
Wind_Direction
258 270 268 255 256 227 206 214 224 249 261 281 295 301 302 308 317 323 329 330 331 329 329 331 334 333 331 327 325 318 314 294 280 269 258 226 210 206 204 206 207 204 195 190
284 273 270 272 259 238 235 234 243 265 276 276 294 304 305 309 311 315 318 320 321 321 323 324 324 322 322 319 318 318 310 292 289 281 265 234 213 202 198 202 193 187 195 189
279 308 319 275 241 217 222 220 210 238 258 307 315 310 301 299 297 298 307 313 315 314 313 314 315 314 312 310 313 318 314 310 305 296 279 260 233 187 177 185 182 184 185 180
291 358 262 254 216 204 227 249 228 251 284 299 296 298 286 282 289 301 308 310 311 312 312 312 312 312 310 314 315 313 316 318 312 305 297 276 231 198 182 168 183 187 180 185
194 270 278 288 247 175 213 276 230 245 281 304 318 318 300 297 308 296 300 302 303 306 305 308 311 313 318 318 316 314 311 310 310 305 295 262 234 225 217 183 190 205 204 188
175 225 253 261 264 198 132 284 263 240 277 307 345 327 300 322 322 312 310 307 307 313 315 315 318 320 315 313 316 314 310 304 298 286 273 257 244 231 228 204 197 191 196 207
207 235 264 262 261 121 180 263 302 252 266 266 246 254 289 312 316 317 318 319 320 320 317 314 321 326 320 320 314 309 310 307 303 288 263 250 244 223 223 217 178 175 200 222
182 214 256 214 140 191 228 284 285 270 264 257 268 286 299 305 312 321 324 325 327 325 320 322 327 325 321 321 317 320 319 314 313 309 291 253 200 212 200 175 177 206 203 230
200 221 249 187 212 235 248 266 269 267 272 269 279 288 295 301 308 315 318 320 323 321 320 326 330 328 321 318 324 324 325 322 322 320 309 285 213 190 183 171 173 213 214 227
255 262 258 251 251 259 249 251 264 264 268 263 268 281 290 297 305 312 315 315 319 323 324 327 332 331 319 319 324 325 321 322 326 331 329 325 298 216 186 178 191 213 224 233
256 274 294 271 244 252 261 264 271 275 265 259 262 277 282 290 297 302 309 314 318 317 315 317 326 327 325 328 331 327 321 323 328 328 328 332 331 288 216 213 227 227 226 219
234 232 222 259 263 252 261 270 267 271 284 280 257 267 279 283 290 296 302 309 314 314 313 315 323 324 328 331 331 327 321 324 325 327 325 323 333 357 2 351 328 295 290 269
243 255 243 267 280 265 261 271 270 259 262 278 278 267 273 282 289 296 301 305 304 303 306 312 320 322 326 331 331 330 321 322 325 328 330 332 330 333 352 9 9 351 332 328
253 265 271 264 267 272 264 273 273 272 270 271 278 285 285 289 296 296 295 296 300 305 311 316 320 319 324 330 330 335 331 327 330 332 331 331 331 331 352 15 5 2 356 349
250 238 248 269 282 287 283 286 294 291 291 291 287 288 289 289 290 292 298 306 312 315 318 322 319 317 327 328 331 336 335 336 337 339 339 336 344 359 20 22 9 0 10 8
279 270 264 266 271 279 281 274 272 280 283 283 284 282 279 278 285 295 305 312 314 312 313 315 311 313 325 327 330 336 336 333 338 345 347 350 358 7 13 15 14 10 357 349
263 275 270 274 273 272 265 258 259 269 274 273 274 280 286 290 297 303 307 306 294 294 300 300 302 312 322 325 328 329 332 334 337 344 350 350 3 2 359 5 1 358 350 341
237 249 252 253 261 270 276 271 266 268 268 271 277 281 277 274 279 288 296 304 307 309 306 302 306 315 320 324 324 329 337 343 351 347 344 351 356 355 358 0 354 349 350 346
263 264 268 267 263 262 269 272 273 272 274 274 268 265 262 263 270 282 293 305 309 307 308 310 317 326 322 320 331 339 343 344 346 346 346 338 344 359 9 7 354 350 349 352
285 284 284 284 281 271 272 275 276 276 274 267 266 271 277 279 283 286 282 274 270 275 292 308 314 314 309 316 339 351 339 330 333 341 346 346 342 343 347 346 341 342 348 346
292 291 289 289 290 286 277 275 270 273 278 266 258 264 273 282 285 280 282 290 294 301 309 320 328 317 313 329 342 354 329 319 321 327 328 326 326 328 332 334 334 334 337 337
286 286 287 288 288 293 293 284 273 273 279 277 272 272 280 287 289 283 265 267 290 310 318 314 315 316 330 346 359 347 337 324 311 313 308 305 304 308 312 315 311 312 314 314
279 277 281 283 282 289 301 295 280 273 273 275 277 275 271 269 268 273 284 285 294 307 318 311 317 328 343 1 354 340 334 327 314 297 282 280 283 284 288 292 294 295 291 292
281 283 283 287 287 297 302 299 291 285 281 282 282 276 271 276 275 258 266 292 304 313 314 314 324 331 343 357 343 328 318 310 303 298 293 291 288 286 285 286 288 291 289 287
282 280 283 288 284 281 283 293 300 298 295 291 291 288 274 254 260 280 289 293 302 315 315 318 325 330 339 335 325 314 305 295 289 288 288 293 289 286 285 284 282 283 282 278
282 280 277 270 272 279 283 286 290 294 298 301 305 304 301 296 287 291 296 298 304 318 325 319 319 323 322 312 305 303 302 307 313 314 298 288 286 286 288 292 292 285 281 278
291 294 299 302 298 293 290 284 283 288 288 289 295 303 306 310 314 315 317 323 327 327 323 324 327 325 320 317 314 311 308 305 301 298 294 288 284 281 280 281 282 283 281 278